Regional Weather Roundup
Issued by NWS

Home | Current Version | Previous Version | Text Only | Print | Product List | Glossary On
Versions: 1 2 3 4 5 6 7 8 9 10 11 12 13 14 15 16 17 18 19 20 21 22 23 24 25 26 27
000
ASUS44 KBMX 250210
RWRAL

ALABAMA REGIONAL WEATHER ROUNDUP
NATIONAL WEATHER SERVICE BIRMINGHAM AL
900 PM CDT FRI OCT 24 2014

NOTE: "FAIR" INDICATES FEW OR NO CLOUDS BELOW 12,000 FEET
WITH NO SIGNIFICANT WEATHER AND/OR OBSTRUCTIONS TO VISIBILITY.

THE REMARK "TC" DENOTES TEMPERATURE IN DEGREES CELSIUS.

ALZ001>011-014-016>018-020-250300-
NORTH ALABAMA

CITY           SKY/WX    TMP DP  RH WIND       PRES   REMARKS
MUSCLE SHOALS  CLEAR     54  46  74 CALM      30.10R
HUNTSVILLE     CLEAR     56  41  57 CALM      30.08R
DECATUR        CLEAR     53  45  74 CALM      30.09R
HALEYVILLE     FAIR      50  47  89 CALM      30.12R
GADSDEN        CLEAR     52  39  62 CALM      30.08R
$$

ALZ012-013-022-023-030>036-040>044-250300-
WEST CENTRAL ALABAMA

CITY           SKY/WX    TMP DP  RH WIND       PRES   REMARKS
TUSCALOOSA     CLEAR     56  49  77 NW3       30.08S
$$

ALZ015-024>027-033>036-040>044-250300-
CENTRAL ALABAMA

CITY           SKY/WX    TMP DP  RH WIND       PRES   REMARKS
BIRMINGHAM     CLEAR     54  45  71 CALM      30.09R
MONTGOMERY     CLEAR     55  44  66 W3        30.06R
SHELBY CO ARPT CLEAR     54  46  74 CALM      30.08R
MAXWELL AFB    CLEAR     54  48  80 NW2       30.05R
GREENVILLE     FAIR      54  49  83 CALM      30.06R
$$

ALZ019-021-028-029-037-038-045>048-250300-
EAST CENTRAL ALABAMA

CITY           SKY/WX    TMP DP  RH WIND       PRES   REMARKS
ANNISTON       CLEAR     49  43  80 CALM      30.07R
ALEXANDER CITY CLEAR     51  48  88 CALM      30.06R
AUBURN         CLEAR     55  45  67 N6        30.07S
$$

ALZ051>064-250300-
SOUTHWEST ALABAMA

CITY           SKY/WX    TMP DP  RH WIND       PRES   REMARKS
MOBILE         CLEAR     55  50  83 NW5       30.08R
BROOKLEY FIELD CLEAR     60  47  61 NW6       30.08R
EVERGREEN      CLEAR     54  49  83 CALM      30.07R
$$

ALZ049-050-065>069-250300-
SOUTHEAST ALABAMA

CITY           SKY/WX    TMP DP  RH WIND       PRES   REMARKS
DOTHAN         CLEAR     55  46  71 CALM      30.07R
OZARK          CLEAR     56  47  71 NW3       30.04R
TROY           CLEAR     52  48  86 CALM      30.06R
EUFAULA        FAIR      51  48  89 CALM      30.03R
$$



USA.gov is the U.S. government's official web portal to all federal, state and local government web resources and services.